Regional Weather Roundup
Issued by NWS Wakefield, VA

Home | Current Version | Previous Version | Graphics & Text | Print | Product List | Glossary On
Versions: 1 2 3 4 5 6 7 8 9 10 11 12 13 14 15 16 17 18 19 20 21 22 23 24 25 26 27
000
ASUS41 KAKQ 231515
RWRAKQ

REGIONAL WEATHER ROUNDUP
NATIONAL WEATHER SERVICE WAKEFIELD VA
1100 AM EDT WED AUG 23 2017

Note: "fair" indicates few or no clouds below 12,000 feet with no
significant weather and/or obstructions to visibility. * = Denotes
station may not report precipitation (e.g., rain,snow,etc.),
thunder or fog.

VAZ042-051-052>054-056-231600-
NORTHERN VIRGINIA

CITY           SKY/WX    TMP DP  RH WIND       PRES   REMARKS
WASH NATIONAL  CLOUDY    79  70  74 NW6       29.89R
DULLES         PTSUNNY   78  66  66 N9        29.90R
FORT BELVOIR   CLOUDY    78  66  67 NW9       29.89R
QUANTICO       CLOUDY    78  70  76 N5        29.89R
FREDERICKSBRG* CLOUDY    77  70  78 N6        29.89R
STAFFORD*      CLOUDY    76  71  86 N9        29.94R
WARRENTON      CLOUDY    77  65  66 N6        29.90S
CULPEPER*      CLOUDY    77  69  75 N6        29.92R
MANASSAS*      CLOUDY    77  68  73 N12       29.90R
LEESBURG*      CLOUDY    79  68  69 N9        29.92R
WINCHESTER     MOSUNNY   75  63  64 NW9       29.93S
FRONT ROYAL*   MOSUNNY   75  64  69 N6        29.92R
LURAY*         CLOUDY    77  66  69 NE5       29.93S
$$

VAZ048-049-060>072-079>083-231600-
CENTRAL AND SOUTH CENTRAL VIRGINIA

CITY           SKY/WX    TMP DP  RH WIND       PRES   REMARKS
RICHMOND       MOSUNNY   85  74  69 N8        29.87R
CHESTERFIELD*  FAIR      85  72  65 NE8       29.88R
PETERSBURG*    PTSUNNY   84  70  63 N6        29.87S
HANOVER        CLOUDY    84  69  60 VRB5      29.89R
TAPPAHANNOCK*  CLOUDY    84  64  50 N6        29.88S
QUINTON*       PTSUNNY  N/A N/A N/A NE3       29.86S
CHARLOTTSVILLE CLOUDY    79  71  76 E3        29.91R
GORDONSVILLE*  CLOUDY    76  69  80 NE8       29.90S
ORANGE*        CLOUDY    73  70  88 NE6       29.90S
LOUISA*        CLOUDY    79  66  65 NE8       29.90R
BUMPASS*       CLOUDY    78  70  77 CALM      29.90R
FARMVILLE*     MOSUNNY   88  63  42 N5        29.88R
CREWE*         FAIR      87  65  47 NW5       29.88R
FORT PICKETT*  FAIR     N/A N/A N/A NW6       29.88S
CHASE CITY*    FAIR      85  70  61 W3        29.89R
CLARKSVILLE*   FAIR      86  72  62 SW5       29.88S
SOUTH HILL*    SUNNY     84  76  76 S3        29.93S
LAWRENCEVILLE* FAIR      85  74  71 CALM      29.88R
EMPORIA*       SUNNY     84  73  70 SW7       29.88S
$$

VAZ088>098-231600-
SOUTHEAST VIRGINIA

CITY           SKY/WX    TMP DP  RH WIND       PRES   REMARKS
NORFOLK        SUNNY     87  75  67 VRB5      29.87R HX  96
VIRGINIA BEACH MOSUNNY   86  74  67 NW5       29.86R
NORFOLK NAVAL  MOSUNNY   85  74  69 SW6       29.88R
WEST POINT*    MOSUNNY   84  71  63 N5        29.88R
SALUDA*        FAIR      83  76  80 NW6       29.86R
NEWPORT NEWS   SUNNY     85  74  69 CALM      29.86R
LANGLEY AFB    MOSUNNY   84  75  74 NE3       29.86R
FORT EUSTIS    SUNNY     88  75  66 W7        29.85R HX  97
WILLIAMSBURG*  SUNNY     90  75  62 CALM      29.87S HX 100
HR EXEC AP*    FAIR      86  75  70 W5        29.84S HX  95
FRANKLIN*      SUNNY     84  74  70 CALM      29.88R
US460-WAKEFLD  SUNNY     86  73  65 CALM      29.86S
$$

VAZ020-022-025-037-045-231600-
WEST CENTRAL AND SOUTHWEST VIRGINIA

CITY           SKY/WX    TMP DP  RH WIND       PRES   REMARKS
STAUNTON*      CLOUDY    75  68  78 CALM      29.96R
WAYNESBORO*    CLOUDY    75  69  80 NW6       29.95R
HOT SPRINGS VA CLOUDY    66  63  88 NW9       30.07R
LYNCHBURG      PTSUNNY   82  68  62 VRB5      29.92R
DANVILLE       CLOUDY    86  69  56 NW12      29.91R
SOUTH BOSTON*  FAIR      85  70  60 W6        29.89S
MARTINSVILLE   CLOUDY    82  69  65 NW3       29.96R
ROANOKE        CLOUDY    77  69  76 W8        29.96R
BLACKSBURG     CLOUDY    72  70  91 W3        30.04R
DUBLIN*        CLOUDY    74  68  79 W5        30.03S
MARION*        CLOUDY    72  52  49 CALM      30.06S
HILLSVILLE*    CLOUDY    71  63  76 CALM      30.03S
RICHLANDS*     CLOUDY    71  63  75 W6        30.06S
WISE*          CLOUDY    72  68  88 CALM      30.07F
ABINGDON*      CLOUDY    75  68  79 N5        30.03S
$$

MDZ021>025-VAZ099-100-231600-
SOUTHERN MARYLAND AND THE DELMARVA PENINSULA

CITY           SKY/WX    TMP DP  RH WIND       PRES   REMARKS
PATUXENT RIVER PTSUNNY   82  71  69 N9        29.86R
BAY BRIDGE APT CLOUDY    79  70  73 N8        29.87S
LEONARDTOWN    PTSUNNY   79  68  69 N3        29.89S
DOVER          PTSUNNY   81  68  65 NW9       29.85R
GEORGETOWN     MOSUNNY   84  70  62 N8        29.86S
EASTON         PTSUNNY   81  70  69 N6        29.90S
CAMBRIDGE      MOSUNNY   81  70  69 N6        29.86S
SALISBURY      SUNNY     85  72  65 N8        29.85S
OCEAN CITY     MOSUNNY   85  73  67 N6        29.86R
WALLOPS ISLAND MOSUNNY   86  75  69 N5        29.85S HX  95
ACCOMACK*      PTSUNNY   84  76  77 N5        29.86S
$$

NCZ012>017-030>032-231600-
NORTH CENTRAL AND EASTERN NORTH CAROLINA

CITY           SKY/WX    TMP DP  RH WIND       PRES   REMARKS
ROANOKE RAPIDS FAIR      82  75  78 CALM      29.88S
RALEIGH        MOSUNNY   86  74  67 W7        29.90S
ELIZABETH CITY PTSUNNY   87  79  76 S8        29.88R HX 101
AHOSKIE*         N/A     83  76  79 S3        29.88S
EDENTON*       MOSUNNY   85  77  75 W7        29.89R HX  95
CURRITUCK*     PTSUNNY   87  75  69 W7        29.89R HX  96
KILL DEVIL HLS SUNNY     85  74  68 CALM      29.88R
MANTEO         SUNNY     86  75  70 SW7       29.89S
CAPE HATTERAS  MOSUNNY   85  78  80 SW10      29.91S HX  96
TARBORO*       NOT AVBL
GOLDSBORO      MOSUNNY   86  81  84 SW6       29.89S HX 102
WASHINGTON     SUNNY     85  76  74 W5        29.90R
GREENVILLE     SUNNY     84  77  79 SW6       29.91S
NEW BERN       MOSUNNY   87  76  69 SW7       29.91S HX  97
WILMINGTON     MOSUNNY   88  74  63 SW7       29.91S HX  96
$$

VAZ048-231600-
ELSEWHERE

CITY           SKY/WX    TMP DP  RH WIND       PRES   REMARKS
HARRISBURG PA  MOSUNNY   76  59  55 VRB7      29.90R
BALTIMORE      CLOUDY    79  69  71 NW7       29.88R
ANNAPOLIS      CLOUDY    81  74  79 VRB5      29.87R
ANDREWS AFB    CLOUDY    78  67  70 N7        29.88R
PHILADELPHIA   PTSUNNY   78  57  48 N10       29.87R
HENDERSON NC   SUNNY     83  69  64 NW5       29.89F
GREENSBORO     PTSUNNY   85  72  65 VRB6      29.92R
ROCKY MOUNT    SUNNY     86  76  71 VRB3      29.88S HX  96
$$

VAZ100-231600-
MARINE

STATION/POSITION TIME  TEMP    WIND        PRES    WAVE   SWELL
                       AIR SEA DIR/SP/G            HT/PER HT/PER
                 (UTC) (F)     (DEG/KT/KT) (MB)    (FT/S) (FT/S)
BRANDYWINE LGT   1448   78     360/ 11/ 13 1011.2R
CAPE MAY NJ      1448   81 78  340/  6/  9 1010.4R
LEWES DE         1448   78 78  350/  6/  9 1010.8R
15NM E FENWICK I 1450   78 79  310/  8/ 10 1011.2R   3/ 6   3/ 6
OCEAN-CITY-INLET 1448   81 74   20/  6/  7 1011.3R
WACHAPREAGUE VA  1448   84 82  280/  4/  7 1011.1R
THOMAS POINT MD  1500   78 81  360/  9/  9   N/A
GOOSES REEF MD   1500   79 81   40/ 10/ 12 1012.2    1/ 2
COVE POINT MD    1448   78      10/ 11/ 14 1012.0R
SOLOMONS ISLAND  1448   80 82   10/  9/ 12   N/A
BISHOPS HEAD MD  1448   83 81   20/  5/  9 1011.3R
PINEY POINT MD   1448          360/  6/  8   N/A
POTOMAC MD       1500   81 83   50/ 12/ 14 1010.5    1
CAMBRIDGE MD     1448   81 83              1012.1R
LEWISETTA VA     1448   82 83  360/  6/  9 1011.2R
RAPPAHANNOCK LGT 1448          320/  7/  8 1011.8R
STINGRAY PT      1500   82 82   40/  6/  8 1011.7    1
YORK RVR RNG VA  1448   82      10/  5/  5 1011.6R
YORKTOWN VA      1448   81 83  300/  4/  6 1010.9R
JAMESTOWN VA     1500      85  280/  6/  6   N/A     1
DOMINION TERM VA 1448   82     310/  3/  5 1011.4R
KIPTOPEKE VA     1448      82  300/  8/  9   N/A
CHES BAY BRIDGE  1448   81 79  290/ 10/ 12 1011.3R
CAPE HENRY VA    1448   83     290/  7/ 10   N/A
WILLOUBY STN VA  1448   82     250/  5/  5 1011.4R
S CRANEY ISL VA  1448   84     230/  5/  6 1011.2R
CAPE HENRY BUOY  1500      80                N/A     3/10   2/11
1ST LANDING BUOY 1500   81 80              1011.2    1/ 3
64NM E OF VA BCH 1450   79 79  230/ 12/ 14 1012.0R   4/ 8   3/ 8
DUCK PIER NC     1448   82 66  230/  9/ 11 1011.5R
44100 DUCK FRF   1405      80                N/A     3/ 9
44056 DUCK FRF   1430      69                N/A     2/ 9   2/11
OREGON INLET NC  1442   83 83  210/ 11/ 13 1012.0R
HATTERAS NC      1448   84 83  230/  7/ 13 1012.7S
DIAMOND SHLS NC  1450   83 84  240/ 16/ 17 1012.7S   4/ 9   2/ 9
CAPE LOOKOUT NC  1500   82     230/ 10/ 13 1012.9R
$$




USA.gov is the U.S. government's official web portal to all federal, state and local government web resources and services.